sat.trackr.live / text

‹ back to catalog

STARLINK-31464

NORAD 59318 · 2024-056Y

PAYLOAD ACTIVE UNKNOWN

§ Identity

Operator
Country
US
Launch date
2024-03-24
Launch site
AFETR
Launch vehicle
Mass (kg)
RCS (m²)

Purposes: comms

External: N2YO · Heavens-Above · Gunter

§ Orbital elements

Epoch: 2026-09-20T04:42:57.037536Z

Period
94.27 min
Inclination
43.0029°
Eccentricity
0.0001364
Mean motion
15.27577562 rev/d
Perigee alt
482.1 km
Apogee alt
484.0 km
Semi-major
6,861.2 km
B*
1.8645e-5
RAAN
212.0616°
Arg perigee
266.8650°
Mean anomaly
93.2046°
Rev number
14,090

§ Raw data

STARLINK-314641 59318U 24056Y   26263.19649349  .00000251  00000+0  18645-4 0  99922 59318  43.0029 212.0616 0001364 266.8650  93.2046 15.27577562140906

JSON: /api/v1/satellites/59318 · /tle

For live sub-satellite position, see the globe view (requires WebGL).

§ Visibility from observer

Set your observer location to see the next 7 days of passes ≥ 10°. The values pass through the URL so the page stays shareable.

No JS? Fill the form by hand. The geolocation button needs JavaScript.